Location: Capel Gartheli
(52.1833°N, 4.0667°W)
Time: 18:44:51
(UTC+00:00)

ATLAS CENTAUR R/B - Pass Details

Date: 18 February 2020
Orbit: 466 x 681 km, 64.7° (Epoch: 03 April)

Event Time Altitude Azimuth Distance (km) Brightness Sun altitude
Exits shadow 05:22:28 47° 263° (W) 837 1.7 -19.7°
Maximum altitude 05:23:31 62° 317° (NW) 706 1.6 -19.5°
Drops below altitude 10° 05:27:52 10° 39° (NE) 1,937 4.7 -18.8°
Sets 05:30:05 0° 43° (NE) 2,804 5.7 -18.5°
